www.pogodaiklimat.ru

Погода и климат >> Архив погоды >> Гибралтар >> Гибралтар


ПОГОДА Гибралтаре

  • Прогноз погоды Гибралтаре
  • Монитор погоды Гибралтаре

АРХИВ ПОГОДЫ Гибралтаре

Время (UTC), дата Ветер
(напр.,м/с)
 
Видим.   Явления Облачность Т
(С)
Тd
(С)
f
(%)
Тe
(С)
Тes
(С)
Комфортность P
(гПа)
Po
(гПа)
Тmin
(С)
Tmax
(С)
R
(мм)
R24
(мм)
S
(см)
22 10.06 З 10 17 км н/о +18.5 +13.8 74 +18 +18 1015.6 1015.0
23 10.06 З 10
{14}
15 км н/о +18.1 +14.1 77 +17 +17 1015.4 1014.8
00 11.06 З 7 16 км н/о +18.2 +13.8 75 +18 +18 1014.8 1014.2
01 11.06 З 7 17 км н/о +18.3 +12.7 70 +18 +18 1014.0 1013.4
02 11.06 ЮЗ 6 17 км н/о +18.6 +13.0 70 +19 +19 1013.3 1012.7
03 11.06 ЮЗ 5 16 км н/о +18.5 +13.1 71 +19 +19 1012.9 1012.3
04 11.06 З 6 15 км н/о +18.4 +14.1 76 +18 +18 1012.3 1011.7
05 11.06 ЮЗ 5 40 км 1/1 720 м
[Sc]
+18.7 +13.9 74 +19 +19 1012.3 1011.7
06 11.06 ЮЗ 5 40 км 1/1 420 м
[St]
+18.4 +14.1 76 +19 +19 1012.6 1012.0 +18.0
07 11.06 ЮЗ 7 40 км 1/1 720 м
[Sc]
+18.9 +14.0 73 +19 +20 1012.8 1012.2
08 11.06 ЮЗ 6 40 км 1/1 420 м
[St]
+19.3 +14.0 71 +20 +23 1012.9 1012.3
09 11.06 З 7 40 км 1/1 600 м
[Sc]
+20.4 +13.1 63 +22 +25 комфорт 1012.7 1012.1
10 11.06 ЮЗ 7 40 км 1/1 800 м
[Sc]
+21.6 +12.2 55 +24 +27 комфорт 1012.8 1012.2
11 11.06 Ю 8-13
{13}
50 км 1/1 800 м
[Cu hum Ci fib]
+21.7 +12.6 56 +24 +28 комфорт 1012.6 1012.1
12 11.06 Ю 6 50 км 1/1 900 м
[Sc Ci fib]
+22.5 +11.6 50 +25 +32 комфорт 1012.4 1011.9
13 11.06 З 8 50 км 1/1 1050 м
[Sc]
+21.6 +12.7 57 +24 +28 комфорт 1012.1 1011.5
14 11.06 З 9 50 км 1/1 900 м
[Sc]
+22.3 +12.8 55 +25 +27 комфорт 1012.0 1011.4
15 11.06 З 7 50 км 1/1 1200 м
[Sc]
+22.7 +13.0 54 +26 +29 жарко 1011.6 1011.0
16 11.06 З 7 50 км 1/1 1200 м
[Sc]
+22.2 +13.0 56 +25 +28 комфорт 1011.4 1010.8
17 11.06 З 6 19 км н/о +23.6 +12.5 50 +26 +26 жарко 1011.0 1010.4
18 11.06 Ю 7 18 км н/о +22.2 +13.6 58 +25 +25 комфорт 1010.6 1010.0 +23.7
19 11.06 З 8 19 км н/о +21.7 +13.4 59 +24 +24 комфорт 1010.7 1010.2
20 11.06 З 7 18 км н/о +20.2 +14.0 68 +22 +22 комфорт 1010.6 1010.0
21 11.06 З 9 18 км н/о +19.6 +14.5 72 +21 +21 комфорт 1011.4 1010.8
22 11.06 З 7 18 км н/о +19.7 +14.0 70 +21 +21 комфорт 1011.5 1010.9
23 11.06 З 7 17 км н/о +19.8 +13.3 66 +21 +21 комфорт 1011.2 1010.6
00 12.06 ЮЗ 6 18 км н/о +19.5 +12.9 66 +21 +21 комфорт 1010.8 1010.3
01 12.06 З 7 18 км н/о +19.8 +13.4 67 +21 +21 комфорт 1010.3 1009.7
02 12.06 ЮЗ 6 18 км н/о +19.5 +12.9 66 +21 +21 комфорт 1010.2 1009.6
03 12.06 СВ 8 11 км н/о +17.8 +15.1 84 +17 +17 1011.3 1010.7
04 12.06 СВ 8 20 км 8/8 360 м
[Sc]
+18.0 +15.7 86 +17 +17 1011.4 1010.8
05 12.06 СВ 7
{13}
15 км 9/9 360 м
[Sc]
+18.1 +15.7 86 +17 +17 1012.1 1011.5
06 12.06 СВ 7
{13}
15 км 9/9 360 м
[Sc]
+17.9 +15.5 86 +17 +17 1012.5 1011.9 +17.4
07 12.06 СВ 7
{13}
15 км 9/9 400 м
[Sc]
+18.1 +15.4 84 +17 +18 1013.0 1012.4
08 12.06 СВ 8
{13}
15 км 8/8 420 м
[Sc]
+18.2 +15.3 83 +18 +18 1013.2 1012.6
09 12.06 В 7 15 км 8/6 420 м
[Sc Ci sp]
+18.7 +15.5 82 +19 +20 1013.4 1012.8
10 12.06 СВ 6 20 км 8/6 420 м
[Sc Ci sp]
+19.4 +15.3 77 +21 +23 комфорт 1013.6 1013.0
11 12.06 СВ 9 13 км н/о +20.2 +14.9 72 +22 +22 комфорт 1013.5 1012.9
12 12.06 В 8 14 км н/о +20.8 +15.4 71 +24 +24 комфорт 1013.4 1012.8
13 12.06 В 5 14 км 1/1 660 м
[Sc]
+20.7 +15.1 70 +24 +33 комфорт 1012.9 1012.3
14 12.06 В 7 15 км н/о +20.7 +15.3 71 +23 +23 комфорт 1012.5 1011.9
15 12.06 В 6 15 км н/о +19.8 +15.1 74 +22 +22 комфорт 1012.3 1011.7
16 12.06 В 7 15 км н/о +19.8 +15.5 76 +22 +22 комфорт 1011.8 1011.2
17 12.06 В 5 15 км 1/1 660 м
[Sc]
+20.1 +15.5 75 +22 +25 комфорт 1011.3 1010.7
18 12.06 В 4 15 км 1/1 660 м
[Sc]
+19.5 +16.1 81 +21 +23 комфорт 1011.1 1010.5 +21.4
19 12.06 СВ 4 14 км 1/1 210 м
[St]
+18.5 +15.9 85 +19 +19 1011.3 1010.7
20 12.06 В 3 10 км 4/4 240 м
[St]
+18.3 +15.7 85 +19 +19 1011.6 1011.0
21 12.06 СВ 4 10 км 5/5 150 м
[St]
+17.9 +15.8 88 +18 +18 1012.0 1011.4
22 12.06 СВ 5 10 км 5/5 150 м
[St]
+17.4 +15.8 90 +17 +17 1012.4 1011.8
23 12.06 В 4 11 км н/о +17.9 +16.1 89 +18 +18 1012.2 1011.6
00 13.06 В 6 12 км н/о +17.9 +16.1 89 +17 +17 1011.9 1011.3
01 13.06 В 7 12 км н/о +18.2 +16.1 88 +18 +18 1011.5 1010.9
02 13.06 СВ 7 12 км н/о +18.0 +16.1 89 +17 +17 1011.0 1010.4
03 13.06 СВ 6 13 км н/о +18.0 +16.0 88 +17 +17 1010.7 1010.1
04 13.06 СВ 5 15 км 9/9 420 м
[Sc]
+18.3 +15.8 85 +18 +18 1010.4 1009.8
05 13.06 СВ 6 20 км 9/8 420 м
[Sc Ci fib]
+18.0 +15.8 87 +18 +18 1010.3 1009.7
06 13.06 СВ 5 20 км 9/8 420 м
[Sc Ac trans]
+17.8 +15.4 86 +17 +17 1010.6 1010.0 +17.4
07 13.06 СВ 5 20 км 9/8 420 м
[Sc Ac trans]
+18.5 +15.6 83 +19 +19 1010.8 1010.2
08 13.06 СВ 6 20 км 9/8 400 м
[Sc Ac trans]
+18.9 +16.3 85 +20 +20 1011.0 1010.4
09 13.06 СВ 6 20 км 9/8 400 м
[Sc Ac trans]
+19.5 +16.6 83 +21 +22 комфорт 1011.1 1010.5
10 13.06 СВ 5 20 км 9/9 420 м
[Sc]
+19.7 +16.4 81 +22 +23 комфорт 1011.3 1010.7
11 13.06 СВ 5 12 км 8/8 420 м
[Sc]
+20.3 +16.3 78 +23 +25 комфорт 1011.2 1010.6
12 13.06 В 4 18 км 8/8 450 м
[Sc]
+20.4 +16.6 79 +24 +26 комфорт 1011.4 1010.8
13 13.06 В 4 20 км 4/4 500 м
[Sc]
+20.9 +16.5 76 +25 +34 комфорт 1011.1 1010.5
14 13.06 В 5 15 км н/о +21.4 +16.3 73 +25 +25 комфорт 1010.9 1010.3
15 13.06 В 4 20 км 6/1 600 м
[Sc Ci sp]
+21.7 +16.1 70 +25 +34 комфорт 1010.7 1010.2
16 13.06 ЮВ 4 20 км 4/1 750 м
[Sc Ci sp]
+22.3 +16.6 70 +27 +32 душно 1010.4 1009.8
17 13.06 В 4 20 км 8/1 840 м
[Sc Ci sp]
+21.8 +16.3 71 +26 +28 душно 1010.3 1009.7
18 13.06 В 4 15 км 6/1 900 м
[Sc Ac cast Ci sp]
+22.0 +16.1 69 +26 +27 душно 1010.5 1010.0 +22.6
19 13.06 ЮВ 3 15 км 9/0
[Ac inh Ci sp]
+21.2 +16.5 75 +25 +25 комфорт 1010.8 1010.2
20 13.06 В 2 15 км 8/0
[Ac inh]
+20.9 +16.6 76 +25 +25 комфорт 1011.8 1011.2
21 13.06 ЮЗ 3 13 км н/о +20.1 +17.0 82 +23 +23 комфорт 1012.8 1012.2
22 13.06 Ю 4 14 км н/о +20.7 +16.5 77 +24 +24 комфорт 1014.0 1013.4
23 13.06 Ю 4 15 км н/о +19.9 +15.4 75 +22 +22 комфорт 1014.4 1013.8
00 14.06 ЮЗ 5 16 км н/о +19.6 +14.7 73 +21 +21 комфорт 1014.4 1013.8
01 14.06 ЮЗ 5 15 км н/о +19.4 +14.4 73 +21 +21 комфорт 1014.1 1013.5
02 14.06 ЮЗ 8 16 км н/о +19.1 +12.6 66 +19 +19 1014.0 1013.4
03 14.06 ЮЗ 9
{13}
16 км н/о +18.1 +12.7 71 +17 +17 1013.9 1013.4
04 14.06 ЮЗ 8
{13}
17 км н/о +17.9 +11.4 66 +17 +17 1014.5 1014.0
05 14.06 ЮЗ 7 40 км 6/6 960 м
[Sc]
+18.1 +10.5 61 +18 +18 1015.5 1014.9
06 14.06 ЮЗ 7 40 км 6/6 930 м
[Sc]
+18.1 +10.5 61 +18 +18 1015.9 1015.3 +17.8
07 14.06 ЮЗ 7 30 км 5/5 900 м
[Cu Sc]
+18.4 +10.4 60 +18 +18 1016.2 1015.6
08 14.06 ЮЗ 9-14
{15}
30 км 6/6 1050 м
[Cu Sc]
+19.5 +10.1 55 +20 +20 1016.8 1016.2
09 14.06 ЮЗ 9
{14}
40 км 5/5 1050 м
[Cu Sc]
+19.4 +10.7 57 +20 +20 1017.4 1016.8
10 14.06 ЮЗ 8
{13}
50 км 4/4 1300 м
[Sc]
+19.9 +9.8 52 +21 +22 комфорт 1017.9 1017.3
11 14.06 З 7
{13}
45 км 4/4 1350 м
[Sc]
+20.8 +8.6 45 +22 +26 комфорт 1018.2 1017.6
12 14.06 З 9-14
{14}
45 км 5/3 1500 м
[Sc Ci fib]
+20.9 +8.1 44 +22 +23 комфорт 1018.3 1017.7
13 14.06 З 9-15
{16}
45 км 6/1 1500 м
[Sc Ci fib]
+20.5 +9.6 50 +21 +23 комфорт 1018.0 1017.4
14 14.06 З 9
{14}
45 км 8/1 1500 м
[Sc Ci fib]
+21.5 +8.4 43 +23 +24 комфорт 1017.9 1017.3
15 14.06 З 7
{13}
50 км 9/1 1500 м
[Sc Ci sp]
+20.8 +9.5 48 +22 +25 комфорт 1018.0 1017.4
16 14.06 З 8-13
{13}
50 км 9/1 1500 м
[Sc Ci sp]
+21.9 +8.5 42 +23 +24 комфорт 1018.2 1017.6
17 14.06 З 7 50 км 9/1 1500 м
[Sc Ci sp]
+21.3 +10.1 49 +23 +24 комфорт 1017.7 1017.1
18 14.06 ЮЗ 7 50 км 9/1 1500 м
[Sc Ci sp]
+20.8 +10.3 51 +22 +23 комфорт 1018.1 1017.5 +22.4
19 14.06 З 7 50 км 8/1 1500 м
[Sc Ci sp]
+19.7 +11.2 58 +21 +21 комфорт 1018.4 1017.8
20 14.06 З 7 50 км 8/1 1500 м
[Sc Ci sp]
+18.9 +11.7 63 +19 +19 1018.7 1018.1
21 14.06 З 10 17 км н/о +18.3 +11.9 66 +17 +17 1019.4 1018.8
22 14.06 З 10 18 км н/о +17.8 +10.5 62 +17 +17 1019.6 1019.0
23 14.06 З 7 19 км н/о +17.5 +10.8 65 +17 +17 1019.9 1019.3
00 15.06 З 10
{13}
17 км н/о +17.3 +11.4 68 +16 +16 1019.2 1018.6
01 15.06 З 8 17 км н/о +17.3 +11.7 70 +16 +16 1018.9 1018.3
02 15.06 З 6 17 км н/о +17.0 +12.1 73 +16 +16 1018.5 1017.9
03 15.06 З 6 16 км н/о +17.0 +12.2 73 +16 +16 1018.4 1017.8
04 15.06 ЮЗ 5 18 км н/о +17.3 +10.9 66 +17 +17 1018.3 1017.7
05 15.06 ЮЗ 5 50 км 1/1 1500 м
[Sc]
+17.1 +10.9 67 +16 +16 1018.6 1018.0
06 15.06 ЮЗ 5 50 км 1/1 1500 м
[Sc Ci fib]
+16.8 +10.5 66 +16 +16 1018.8 1018.2 +16.8
07 15.06 ЮЗ 5 50 км 1/0
[Ci fib]
+17.8 +10.6 63 +17 +19 1019.0 1018.4
08 15.06 ЮЗ 3 50 км 1/0
[Ci fib]
+19.2 +10.2 56 +20 +26 1019.0 1018.4
09 15.06 ЮЗ 3 50 км 1/0
[Ci fib]
+21.4 +10.1 48 +23 +32 комфорт 1018.9 1018.3
10 15.06 ЮЗ 4 50 км 1/0
[Ci fib]
+22.8 +9.2 42 +24 +36 комфорт 1018.9 1018.3
11 15.06 З 5 50 км 1/0
[Ci fib]
+24.6 +10.0 40 +26 +35 жарко 1018.5 1017.9
12 15.06 Ю 5 50 км 1/0
[Ci fib]
+25.1 +10.1 39 +26 +38 жарко 1017.9 1017.3
13 15.06 Ю 6 50 км 1/0
[Ci fib]
+23.8 +11.7 47 +25 +33 комфорт 1017.4 1016.9
14 15.06 Ю 7-12
{15}
50 км ясно +24.4 +13.0 49 +26 +32 жарко 1017.0 1016.4
15 15.06 Ю 8-13
{13}
50 км ясно +23.1 +13.8 56 +27 +29 душно 1016.6 1016.0
16 15.06 Ю 8
{13}
50 км 1/0
[Ci fib]
+23.6 +13.0 51 +26 +27 жарко 1016.2 1015.6
17 15.06 Ю 8
{14}
50 км 1/0
[Ci fib]
+24.5 +12.3 47 +26 +27 жарко 1016.0 1015.4
18 15.06 Ю 7
{13}
50 км 1/0
[Ci fib]
+23.7 +11.9 48 +25 +26 комфорт 1015.7 1015.1 +26.2
19 15.06 Ю 7 50 км 3/0
[Ci fib]
+22.3 +12.9 55 +25 +25 комфорт 1016.2 1015.6
20 15.06 ЮЗ 5 50 км 4/0
[Ci fib]
+23.3 +11.7 48 +26 +26 жарко 1016.5 1015.9
21 15.06 З 7 19 км н/о +22.1 +12.0 53 +24 +24 комфорт 1017.1 1016.5
22 15.06 ЮЗ 7 18 км н/о +20.6 +12.2 59 +22 +22 комфорт 1017.3 1016.7
23 15.06 ЮЗ 7 18 км н/о +19.5 +12.5 64 +20 +20 1017.3 1016.7
00 16.06 ЮЗ 5 18 км н/о +19.8 +11.2 58 +21 +21 комфорт 1016.7 1016.2
01 16.06 ЮЗ 5 19 км н/о +19.2 +11.1 59 +20 +20 1016.5 1015.9
02 16.06 ЮЗ 3 18 км н/о +19.0 +11.5 62 +20 +20 1015.9 1015.3
03 16.06 штиль 0 18 км н/о +18.2 +11.1 63 +18 +18 1016.3 1015.7
04 16.06 СВ 2 15 км н/о +18.0 +13.5 75 +19 +19 1016.3 1015.7
05 16.06 В 3 30 км 9/0
[Ci sp]
+17.5 +14.3 81 +18 +18 1016.8 1016.2
06 16.06 СВ 3 20 км 9/5 210 м
[St Ci sp]
+17.2 +15.0 87 +17 +17 1017.4 1016.8 +17.2
07 16.06 СВ 3 15 км 9/8 180 м
[St Ci sp]
+17.6 +15.6 88 +18 +18 1018.0 1017.4
08 16.06 В 3 15 км 9/9 210 м
[St]
+17.7 +15.4 86 +18 +18 1018.6 1018.0
09 16.06 СВ 3 15 км 9/3 210 м
[St Ci sp]
+18.4 +15.7 84 +19 +25 1018.8 1018.2
10 16.06 СВ 3 25 км 9/0
[Ac trans Ci sp]
+18.1 +15.6 85 +19 +30 1018.9 1018.3
11 16.06 В 3 25 км 8/0
[Ac trans Ci sp]
+19.8 +15.9 78 +22 +36 комфорт 1018.9 1018.3
12 16.06 В 3 25 км 5/0
[Ac trans Ci sp]
+19.3 +15.4 78 +21 +38 комфорт 1019.1 1018.5
13 16.06 В 3 25 км 4/0
[Ac cast Ci sp]
+20.6 +15.1 71 +24 +40 комфорт 1018.9 1018.3
14 16.06 В 4 30 км 4/0
[Ac cast Ci sp]
+20.2 +15.1 72 +23 +35 комфорт 1018.6 1018.0
15 16.06 В 4 40 км 3/0
[Ci sp]
+21.2 +13.7 62 +24 +33 комфорт 1018.6 1018.0
16 16.06 В 4 40 км 3/0
[Ci sp]
+21.8 +12.6 56 +24 +30 комфорт 1018.6 1018.0
17 16.06 В 5 40 км 1/0
[Ac cast Ci fib]
+21.5 +13.6 61 +24 +27 комфорт 1018.3 1017.7
18 16.06 В 4 40 км 1/0
[Ac cast]
+20.9 +14.9 69 +24 +26 комфорт 1018.5 1017.9 +22.3
19 16.06 В 4 35 км 1/0
[Ac cast]
+20.1 +15.4 74 +23 +23 комфорт 1018.7 1018.1
20 16.06 В 3 30 км 1/0
[Ci fib]
+19.7 +15.9 79 +22 +22 комфорт 1018.9 1018.3
21 16.06 СВ 3 15 км н/о +18.5 +15.6 83 +20 +20 1019.4 1018.8
22 16.06 СВ 3 15 км н/о +18.5 +15.0 80 +19 +19 1019.7 1019.1
23 16.06 СВ 3 15 км н/о +18.5 +14.6 78 +19 +19 1019.6 1019.0
00 17.06 СВ 2 15 км н/о +18.0 +14.4 79 +19 +19 1019.2 1018.6
01 17.06 СВ 2 15 км н/о +17.7 +13.9 78 +18 +18 1018.9 1018.3
02 17.06 З 2 14 км н/о +16.1 +13.7 86 +16 +16 1018.6 1018.0
03 17.06 З 3 13 км н/о +15.7 +13.3 86 +15 +15 1018.4 1017.8
04 17.06 ЮЗ 2 13 км н/о +15.9 +13.5 86 +16 +16 1018.1 1017.5
05 17.06 З 3 13 км н/о +15.3 +13.1 87 +15 +15 1018.2 1017.6
06 17.06 З 2 25 км 3/3 210 м
[St]
+15.6 +13.4 87 +16 +16 1018.2 1017.6 +15.0
07 17.06 З 2 20 км 4/4 240 м
[St]
+16.2 +13.1 82 +17 +18 1018.6 1018.0
08 17.06 З 1 20 км 4/4 400 м
[St]
+16.8 +13.5 81 +18 +22 1018.7 1018.1
09 17.06 СВ 3 20 км 1/1 400 м
[St]
+19.8 +15.8 78 +22 +32 комфорт 1018.6 1018.0
10 17.06 В 3 20 км ясно +20.0 +15.5 75 +23 +35 комфорт 1018.5 1017.9
11 17.06 В 4 20 км ясно +20.3 +15.5 74 +23 +37 комфорт 1018.5 1018.0
12 17.06 В 5 20 км ясно +21.2 +15.6 70 +24 +37 комфорт 1018.3 1017.7
13 17.06 В 5 25 км ясно +21.3 +15.8 71 +25 +37 комфорт 1017.7 1017.1
14 17.06 В 5 25 км ясно +21.0 +16.2 74 +25 +34 комфорт 1016.9 1016.4
15 17.06 В 5 20 км ясно +21.5 +15.8 70 +25 +32 комфорт 1016.6 1016.0
16 17.06 В 4 20 км ясно +21.7 +16.5 72 +26 +32 душно 1016.2 1015.6
17 17.06 В 4 18 км ясно +22.5 +16.5 69 +27 +30 душно 1015.8 1015.2
18 17.06 В 4 15 км ясно +20.4 +16.6 79 +24 +25 комфорт 1015.7 1015.1 +23.4
19 17.06 В 3 15 км ясно +20.0 +16.6 81 +23 +23 комфорт 1015.6 1015.0
20 17.06 В 2 20 км ясно +19.3 +16.5 84 +22 +22 комфорт 1015.6 1015.1
21 17.06 В 3 9000 м н/о +18.6 +16.3 86 +20 +20 1015.8 1015.2
22 17.06 В 2 9000 м н/о +18.6 +16.5 88 +20 +20 1016.4 1015.8

 

Местоположение метеостанции Гибралтар (Гибралтар): широта 36.15 долгота -5.35 высота над уровнем моря 5 м.

В архиве по умолчанию представлена погода Гибралтаре за последнюю неделю. Архивные данные за месяц целиком и за предыдущие месяцы, начиная с января 2011 года, Вы можете получить, выбрав интересующий диапазон дат из раскрывающегося списка и нажав кнопку "Ввод!".


*Определитесь, кто Вы:
робот инопланетянин человек

Внимание! Время в таблицах - всемирное. Для получения местного времени необходимо прибавить поправку, которая равна 1 ч.

Смотрите также архив погоды в соседних городах и на ближайших метеорологических станциях:

Погода в Тарифе (Испания) (27 км)
Погода в Сеуте (Испания) (28 км)
Погода в Эстепоне (Испания) (35 км)
Погода в Вехер-де-ла-Фронтера (Испания) (56 км)
Погода в Танжер порту (Марокко) (58 км)
Погода в Тетуане (Марокко) (63 км)
Погода в Грасалеме (Испания) (68 км)
Погода в Танжере (Марокко) (68 км)
Погода в Фуэнхироле (Испания) (78 км)
Погода в Сан-Фернандо (Испания) (85 км)

Пояснения к столбцам:

Ветер - указаны скорость ветра в м/с - средняя за 10 мин, порывы в срок и между сроками (в фигурных скобках) и направление, откуда дует ветер: С - северный, СВ - северо-восточный, В - восточный, ЮВ - юго-восточный, Ю - южный, ЮЗ - юго-западный, З - западный, СЗ - северо-западный.
Видимость - горизонтальная дальность видимости в метрах или километрах. При видимости от 1 до 10 км при отсутствии осадков обычно наблюдается дымка, при ухудшении видимости до 1 км и менее - туман. В сухую погоду видимость может ухудшаться дымом, пылью или мглою.
Явления - указаны атмосферные явления, наблюдавшиеся в срок или в последний час перед сроком; фигурными скобками обозначены явления, наблюдавшиеся между сроками (за 1-3 часа до срока); квадратными скобками обозначены град или гололедные отложения с указанием их диаметра в мм.
Облачность - указаны через наклонную черту общая и нижняя облачность в баллах и высота нижней границы облаков в метрах; квадратными скобками обозначены формы облаков: Ci - перистые, Cs - перисто-слоистые, Cc - перисто-кучевые, Ac - высококучевые, As - высокослоистые, Sc - слоисто-кучевые, Ns - слоисто-дождевые, Cu - кучевые, Cb - кучево-дождевые. Подробнее классификацию облаков см. в Атласе облаков (PDF).
T - Температура воздуха - температура, измеренная на высоте 2 м над землей.
Td - Температура точки росы - температура, при понижении до которой содержащийся в воздухе водяной пар достигнет насыщения.
f - Относительная влажность воздуха - влажноcть воздуха, измеренная на высоте 2 м над землей.
Te - Эффективная температура - температура, которую ощущает одетый по сезону человек в тени. Характеристика душности погоды. При расчете учитывается влияние влажности воздуха и скорости ветра на теплоощущения человека.
Tes - Эффективная температура на солнце - температура, которую ощущает человек, с поправкой на солнечный нагрев. Характеристика знойности погоды. Зависит от высоты солнца над горизонтом, облачности и скорости ветра. Ночью, в пасмурную погоду, а также при ветре 12 м/с и более поправка равна нулю.
P - Атмосферное давление - приведенное к уровню моря атмосферное давление.
Po - Атмосферное давление - измеренное на уровне метеостанции атмосферное давление.
Tmin - Минимальная температура - минимум температуры воздуха на высоте 2 м над землей.
Tmax - Максимальная температура - максимум температуры воздуха на высоте 2 м над землей.
R - Количество осадков - Количество выпавших осадков за период времени, мм. При наведении курсора мыши на число - период времени, за который выпало указанное количество осадков.
R24 - Количество осадков - Количество выпавших осадков за 24 часа, мм.
S - Снежный покров - Высота снежного покрова, см. При наведении курсора мыши на число - состояние снежного покрова и степень покрытия местности в баллах.